Showing default

OPS 9316 (IDSCS 6), 2220

Orbit data source: Space-Track

OPS 9316 (IDSCS 6), 2220 is a payload satellite owned by USAF SSD (US) in GEO that was launched on Thu, 16 Jun 1966 UTC via a TITAN IIIC launch vehicle from the Air Force Eastern Test Range (AFETR). Payloads include a variety of satellites, spacecraft, and rockets equipped with specific instruments for various scientific and technological missions. These include communications satellites like Starlink; space stations such as the ISS; scientific satellites like the Hubble; Earth observation satellites from companies like Planet Labs, Umbra, and HawkEye 360; GPS; miniature CubeSats for education and research; and military/defense satellites.

Loading next visibility...
OPS 9316 (IDSCS 6) details
Identifier
2220, 1966-053G
Orbit
GEO
Last TLE update2 days ago
Origin
Flag of USUSAF SSD (US)
ManufacturerPhilco-Ford WDL
MissionNon-operational Defense Communications
Bus & MotorIDCSP, Unknown motor
Mass45 kg wet, 45 kg dry
Launch date (UTC)
1966-06-16 (59 years ago)
Launch vehicle
TITAN IIIC
Launch site
Air Force Eastern Test Range (AFETR)
Object type
Payload
Rocket body
Debris
Shape & HBRIco Poly, 0.9 m
Radar Cross Section0.926 m², Medium (>0.1 m² and < 1m²)

Expand to show TLE details & history

TLE from 2 days ago
0 OPS 9316 (IDSCS 6)
1 02220U 66053G   25021.44502582 -.00000057  00000-0  00000-0 0  9999
2 02220   7.4818  50.7369 0065311 169.2051 196.1111  1.07156079133571
Epoch: 2025-01-21T10:40Z
Definitive object data (Epoch: 2025-01-21T10:40:50.23Z)
Latitude0.66088°
Longitude134.55433°
Altitude34,212.528 km
Speed3.124 km/s
True Right ascension03h 43m 15s
True Declination0° 39' 37"
Sunlit
Object was in daylight at TLE epoch
Visualization TLE readout
Latitude7.08881°
Longitude-121.17465°
Altitude33,827.62 km
Speed3.154 km/s
Apparent Right ascension10h 13m 10s
Apparent Declination1° 19' 29"
Sunlit
Object is in daylight
Visualization observer readout
Local Sidereal Time15:10:44
Azimuth260.861° W
Elevation12.778°
Doppler factor1
Orbital elements
Apogee altitude34,225.308 km
Perigee altitude33,698.379 km
Semi-major axis40,339.981 km
Eccentricity0.0065311
Inclination7.4818°
RAAN50.7369°
Arg. of periapsis169.2051°
True anomaly195.90503°
Mean anomaly196.1111°
Eccentric anomaly196.00791°
Mean motion0.26788 °/min
BSTARUnknown
Orbital period1343.89 mins
Loading historical data...
2220 neighbors
Authenticating...
Loading maneuver chart data...
Loading historical data...
Loading historical data...
Loading historical data...
Loading historical data...
Loading historical data...
Loading historical data...
Loading historical data...

OPS 9316 (IDSCS 6) Visibility forecast

Observer location: undefined°, undefined

Span
Click to sort rows by Start time (UTC) header in descending order
Start Az.
Max El. time (UTC)
Max El. Az.
Max El.
End time (UTC)
End Az.
1440 mins2025-01-23 13:58:34.544Z260.845° W2025-01-24 13:11:34.544Z241.039° WSW27.105°2025-01-24 13:58:34.544Z239.24° WSW
|